Regional Weather Roundup
Issued by NWS

Home | Current Version | Previous Version | Text Only | Print | Product List | Glossary On
Versions: 1 2 3 4 5 6 7 8 9 10 11 12 13 14 15 16 17 18 19 20 21 22 23 24 25 26 27 28 29 30 31 32 33 34 35 36 37 38 39 40 41 42 43 44 45 46 47 48 49 50
000
ASUS43 KOAX 161002
RWRNE

WEATHER ROUNDUP FOR NEBRASKA
NATIONAL WEATHER SERVICE OMAHA NE
400 AM CST MON JAN 16 2017

NOTES: SATELLITE DATA IS BEING USED TO AUGMENT CLOUD COVER ABOVE
       12000 FEET.
       "FAIR" INDICATES FEW OR NO CLOUDS BELOW 12,000 FEET WITH NO
       SIGNIFICANT WEATHER AND/OR OBSTRUCTIONS TO VISIBILITY.

  * THESE STATIONS DO NOT REPORT WEATHER SUCH AS RAIN...SNOW OR FOG.

NEZ001>004-019>022-054>056-161100-
NEBRASKA PANHANDLE

CITY           SKY/WX    TMP DP  RH WIND       PRES   REMARKS
SCOTTSBLUFF    CLOUDY    33  27  78 NW6       30.00S WCI  28
ALLIANCE       CLOUDY    31  25  78 N9        29.98S WCI  23
CHADRON        CLOUDY    26  21  81 W6        30.05S WCI  19
KIMBALL        LGT SNOW  31  31 100 N18       29.95F WCI  19
SIDNEY         LGT SNOW  30  27  88 N12       29.95S FOG     WCI  20
$$

NEZ057>060-069>072-079>082-161100-
SOUTHWEST NEBRASKA

CITY           SKY/WX    TMP DP  RH WIND       PRES   REMARKS
NORTH PLATTE   CLOUDY    32  30  92 NE5       29.97F FOG     WCI  27
IMPERIAL       FRZ RAIN  32  30  92 N10       29.95F FOG     WCI  24
LEXINGTON      CLOUDY    31  30  95 NE7       29.98F FOG     WCI  25
MCCOOK         MIX PCPN  31  31 100 N8        29.96F FOG     WCI  23
OGALLALA       MIX PCPN  33  32  96 CALM      29.95F
$$

NEZ005>010-023>029-035>040-094-161100-
NORTH CENTRAL NEBRASKA

CITY           SKY/WX    TMP DP  RH WIND       PRES   REMARKS
VALENTINE      CLOUDY    27  22  81 NW5       30.03S WCI  22
AINSWORTH      MIX PCPN  31  31  97 CALM      30.02F
BROKEN BOW     CLOUDY    32  30  92 NE7       29.99F WCI  26
O`NEILL        MIX PCPN  32  32 100 CALM      30.04F
ORD            CLOUDY    31  28  89 NE3       30.01F
THEDFORD       CLOUDY    32  32  99 N3        29.99F FOG
$$

NEZ041-046>049-061>064-073>077-083>087-161100-
SOUTH CENTRAL NEBRASKA

CITY           SKY/WX    TMP DP  RH WIND       PRES   REMARKS
GRAND ISLAND   CLOUDY    30  30 100 NE8       30.02F WCI  22
AURORA         MIX PCPN  31  31  98 NE8       30.01F WCI  24
HASTINGS       MIX PCPN  31  30  96 NE12      30.00F FOG     WCI  22
HEBRON         MIX PCPN  32  31  96 NE8       29.99F WCI  25
HOLDREGE       CLOUDY    31  30  96 NE9       29.96F FOG     WCI  23
KEARNEY *      CLOUDY    30  28  93 NE9       29.99F WCI  22
YORK           LGT RAIN  32  32 100 CALM      30.02F
$$

NEZ011>018-030>034-042>045-161100-
NORTHEAST NEBRASKA

CITY           SKY/WX    TMP DP  RH WIND       PRES   REMARKS
NORFOLK        FRZ RAIN  30  28  92 E5        30.05F FOG     WCI  25
ALBION         MIX PCPN  31  30  94 E3        30.05S
BLAIR          FOG       32  32  99 NE6       30.07F VSB 3/4 WCI  26
FREMONT        CLOUDY    32  32 100 NE3       30.08F FOG
TEKAMAH        CLOUDY    32  31  96 N5        30.09F FOG     WCI  27
WAYNE          MIX PCPN  31  31  99 E3        30.08F
$$

NEZ050>053-065>068-078-088>093-161100-
SOUTHEAST NEBRASKA

CITY           SKY/WX    TMP DP  RH WIND       PRES   REMARKS
LINCOLN        FRZ RAIN  32  31  96 NE12      30.06F FOG     WCI  23
OMAHA EPPLEY   CLOUDY    33  29  85 E6        30.09F WCI  28
BEATRICE       MIX PCPN  32  32  99 NE8       30.01F WCI  25
FALLS CITY     CLOUDY    32  32 100 E8        30.03F FOG     WCI  25
NEBRASKA CITY  MIX PCPN  32  32 100 NE9       30.04F VSB 3/4 WCI  24
PLATTSMOUTH    FOG       32  30  92 NE8       30.06F VSB 1   WCI  25
$$

NEZ044-045-051>053-067-161100-
OMAHA AREA

CITY           SKY/WX    TMP DP  RH WIND       PRES   REMARKS
OMAHA EPPLEY   CLOUDY    33  29  85 E6        30.09F WCI  28
BLAIR          FOG       32  32  99 NE6       30.07F VSB 3/4 WCI  26
FREMONT        CLOUDY    32  32 100 NE3       30.08F FOG
MILLARD        CLOUDY    34  33  94 CALM      30.09S
OFFUTT AFB     LGT RAIN  32  32 100 NE6       30.07F WCI  27
PLATTSMOUTH    FOG       32  30  92 NE8       30.06F VSB 1   WCI  25
WAHOO          MIX PCPN  32  31  96 NE8       30.07F WCI  25
$$




USA.gov is the U.S. government's official web portal to all federal, state and local government web resources and services.